[[{"header":{"parameterUnit":"m.s-1","parameterCategory":1,"la1":30.2991,"la2":30.254,"lo1":-89.0895,"lo2":-89.0444,"dy":0.0017,"dx":0.0017,"nx":28,"ny":28,"refTime":"2025-05-21T21:00:00:Z","depth":0,"parameterNumber":2,"parameterNumberName":"U-component_of_WINDS"},"data":[0,0,0,0,0,0,0,0,0,0,0,0,0,0,0,0,0,0,0,0,0,0,0,0,0,0,0,0,0,0,0,0,0,0,0,0,0,0,0,0,0,0,0,0,0,0,0,0,0,0,0,0,0,0,0,0,0,0,-2.7942,-2.7942,0,-2.793,-2.7929,-2.7929,-2.7883,-2.7882,-2.7881,-2.788,-2.7868,-2.7868,-2.7869,0,0,0,0,0,0,0,0,0,0,0,0,0,-2.7929,-2.7929,-2.7942,-2.7942,-2.7942,-2.793,-2.7929,-2.7929,-2.7883,-2.7882,-2.7881,-2.7879,-2.7867,-2.7868,-2.7869,0,0,0,0,0,0,0,0,0,0,0,0,0,-2.7927,-2.793,-2.7942,-2.7917,-2.7915,-2.793,-2.7929,-2.7929,-2.7883,-2.7882,-2.788,-2.7879,-2.7867,-2.7868,-2.7869,-2.7907,0,0,-2.7872,-2.7873,0,0,0,0,0,0,0,0,-2.7928,-2.7928,-2.7921,-2.7919,-2.7917,-2.7906,-2.792,-2.7922,-2.7884,-2.7896,-2.788,-2.7878,-2.7882,-2.7881,-2.7883,-2.7906,-2.7906,-2.7872,-2.7873,-2.7873,-2.7873,0,0,0,0,0,0,0,-2.7928,-2.7928,-2.7937,-2.7921,-2.7918,-2.7908,-2.7906,-2.792,-2.7898,-2.7894,-2.7891,-2.789,-2.788,-2.7882,-2.7882,-2.7905,-2.7872,-2.7873,-2.7874,-2.7874,-2.7961,-2.7963,0,0,0,0,0,0,-2.7931,-2.7929,-2.7938,-2.7937,-2.7918,-2.7909,-2.7907,-2.7911,-2.7897,-2.7894,-2.7891,-2.7888,-2.7881,-2.7881,-2.7881,-2.7925,-2.7873,-2.7874,-2.7875,-2.796,-2.7962,-2.7964,0,0,0,0,0,0,-2.7931,-2.7932,-2.7938,-2.7932,-2.7932,-2.7911,-2.7916,-2.7912,-2.7913,-2.7895,-2.7891,-2.7897,-2.788,-2.788,-2.7901,-2.7924,-2.7875,-2.7875,-2.7958,-2.796,-2.7963,-2.8012,0,0,0,0,0,0,-2.7931,-2.7933,-2.7946,-2.7932,-2.7932,-2.7957,-2.7918,-2.7913,-2.7915,-2.791,-2.7899,-2.7896,-2.7878,-2.79,-2.7902,-2.7924,-2.7876,-2.7955,-2.7959,-2.7962,-2.8008,-2.8016,-2.8023,0,0,0,0,0,-2.7931,-2.796,-2.7947,-2.7948,-2.7948,-2.7959,-2.7959,-2.7938,-2.7917,-2.793,-2.792,-2.7896,-2.7922,-2.7903,-2.7905,-2.7927,-2.7954,-2.7958,-2.7962,-2.8005,-2.8015,-2.8023,0,0,0,0,0,0,-2.7976,-2.7958,-2.7943,-2.7969,-2.7966,-2.7951,-2.7967,-2.7948,-2.7951,-2.7946,-2.7921,-2.7919,-2.7944,-2.7938,-2.7917,-2.7964,-2.7934,-2.7939,-2.7966,-2.7975,-2.7982,-2.7982,-2.7877,0,0,0,0,0,-2.7989,-2.7999,-2.7982,-2.8007,-2.8006,-2.7988,-2.7991,-2.7976,-2.7971,-2.797,-2.796,-2.7958,-2.7965,-2.797,-2.7976,-2.8009,-2.8006,-2.8026,-2.8033,-2.8039,-2.8042,-2.806,-2.8069,-2.7976,-2.7976,-2.7976,0,0,-2.8016,-2.8007,-2.8015,-2.8016,-2.8012,-2.8023,-2.7986,-2.7999,-2.8007,-2.7972,-2.7991,-2.7985,-2.798,-2.8007,-2.8019,-2.8003,-2.8068,-2.8044,-2.8049,-2.8049,-2.8065,-2.8074,-2.8082,-2.7979,-2.7979,-2.7978,0,0,-2.807,-2.8065,-2.8085,-2.8082,-2.8077,-2.8064,-2.807,-2.8058,-2.8053,-2.8072,-2.8046,-2.8056,-2.8069,-2.8067,-2.8068,-2.8126,-2.8105,-2.8129,-2.8166,-2.8183,-2.8191,-2.8197,-2.8217,-2.8225,-2.8133,-2.8133,-2.8133,0,-2.8104,-2.8119,-2.8098,-2.8113,-2.8115,-2.8084,-2.8105,-2.8104,-2.81,-2.8103,-2.8086,-2.8103,-2.8098,-2.8125,-2.8139,-2.8141,-2.8147,-2.8128,-2.8191,-2.8197,-2.8203,-2.8222,-2.823,-2.8136,-2.8136,-2.8135,-2.8135,0,-2.8161,-2.8173,-2.819,-2.8188,-2.8192,-2.821,-2.8192,-2.8199,-2.8185,-2.8175,-2.8196,-2.8189,-2.8194,-2.82,-2.8185,-2.8225,-2.8216,-2.8196,-2.8164,-2.8215,-2.8233,-2.824,-2.814,-2.8139,-2.8138,-2.8137,0,0,-2.8241,-2.8229,-2.8235,-2.8235,-2.8228,-2.8237,-2.8255,-2.8259,-2.8266,-2.8266,-2.8281,-2.8294,-2.8276,-2.8277,-2.8263,-2.8279,-2.8326,-2.8257,-2.8256,-2.8269,-2.837,-2.8384,-2.8393,-2.8313,-2.8314,-2.8315,-2.837,0,-2.8292,-2.832,-2.8303,-2.8334,-2.8345,-2.8318,-2.8334,-2.8332,-2.8324,-2.8333,-2.8325,-2.8334,-2.831,-2.8311,-2.8325,-2.8317,-2.8345,-2.8313,-2.8326,-2.8327,-2.8326,-2.8402,-2.8417,-2.8469,-2.8377,-2.8378,-2.8379,0,-2.8354,-2.8357,-2.839,-2.8383,-2.8387,-2.8401,-2.8405,-2.8414,-2.8412,-2.8406,-2.8409,-2.8391,-2.8409,-2.8381,-2.8406,-2.8384,-2.839,-2.8387,-2.8388,-2.8387,-2.8354,-2.8402,-2.8485,-2.8492,-2.839,-2.8389,-2.8388,0,-2.8408,-2.8421,-2.8442,-2.8443,-2.8435,-2.8446,-2.8444,-2.8441,-2.8445,-2.845,-2.8453,-2.8459,-2.8463,-2.8469,-2.8454,-2.8435,-2.8482,-2.8452,-2.8477,-2.8477,-2.8486,-2.8485,-2.8569,-2.8492,-2.8492,-2.8492,-2.8492,0,-2.8466,-2.8487,-2.8466,-2.8479,-2.8503,-2.8484,-2.8508,-2.8503,-2.8501,-2.8513,-2.8492,-2.8504,-2.8485,-2.8495,-2.8485,-2.8508,-2.851,-2.8505,-2.8502,-2.8506,-2.8507,-2.8507,-2.8503,-2.8494,-2.8493,-2.8493,-2.8493,0,-2.8529,-2.8516,-2.8537,-2.853,-2.8528,-2.8546,-2.8539,-2.8552,-2.8544,-2.856,-2.8563,-2.855,-2.8562,-2.8549,-2.856,-2.8553,-2.8584,-2.8576,-2.8584,-2.8581,-2.8607,-2.8604,-2.8693,-2.8704,-2.8621,-2.8622,-2.8622,0,-2.8566,-2.8581,-2.8575,-2.8582,-2.8581,-2.8592,-2.8597,-2.8581,-2.8587,-2.8588,-2.8601,-2.8611,-2.8618,-2.8639,-2.8631,-2.864,-2.8631,-2.8662,-2.8632,-2.8637,-2.8631,-2.863,-2.8632,-2.8668,-2.8669,-2.8669,-2.867,0,-2.8632,-2.8626,-2.8634,-2.864,-2.8647,-2.8651,-2.8654,-2.8661,-2.8644,-2.8653,-2.8665,-2.8671,-2.8683,-2.8694,-2.8701,-2.8699,-2.8682,-2.868,-2.8686,-2.869,-2.8694,-2.8692,-2.8599,-2.8677,-2.8677,-2.8676,-2.8676,-2.8675,-2.8683,-2.8696,-2.8694,-2.8704,-2.8705,-2.8709,-2.872,-2.8715,-2.8724,-2.8732,-2.8723,-2.8738,-2.8739,-2.8746,-2.8748,-2.876,-2.8747,-2.8756,-2.8758,-2.876,-2.8764,-2.8694,-2.8761,-2.8761,-2.8761,-2.8761,-2.8761,0,-2.8748,-2.8746,-2.8756,-2.8761,-2.8769,-2.8754,-2.8757,-2.8765,-2.8778,-2.8781,-2.8789,-2.8804,-2.8815,-2.8809,-2.8819,-2.883,-2.8823,-2.8833,-2.8832,-2.8832,-2.8775,-2.8768,-2.8839,-2.8839,-2.8839,-2.8839,-2.8839,-2.8839,-2.8783,-2.8804,-2.8798,-2.8821,-2.8819,-2.8833,-2.8837,-2.8841,-2.8842,-2.886,-2.8869,-2.8865,-2.8865,-2.8875,-2.8885,-2.8884,-2.8888,-2.8901,-2.8897,-2.8843,-2.8836,-2.8828,-2.8822,-2.8903,-2.8903,-2.8952,-2.8953,-2.8953]},{"header":{"parameterUnit":"m.s-1","parameterCategory":1,"la1":30.2991,"la2":30.254,"lo1":-89.0895,"lo2":-89.0444,"dy":0.0017,"dx":0.0017,"nx":28,"ny":28,"refTime":"2025-05-21T21:00:00:Z","depth":0,"parameterNumber":3,"parameterNumberName":"V-component_of_WINDS"},"data":[0,0,0,0,0,0,0,0,0,0,0,0,0,0,0,0,0,0,0,0,0,0,0,0,0,0,0,0,0,0,0,0,0,0,0,0,0,0,0,0,0,0,0,0,0,0,0,0,0,0,0,0,0,0,0,0,0,0,3.0927,3.0928,0,3.0995,3.0995,3.0996,3.1049,3.105,3.105,3.1051,3.1118,3.1119,3.112,0,0,0,0,0,0,0,0,0,0,0,0,0,3.0845,3.0846,3.0927,3.0928,3.0929,3.0995,3.0995,3.0996,3.1049,3.105,3.105,3.1051,3.1117,3.1119,3.112,0,0,0,0,0,0,0,0,0,0,0,0,0,3.0893,3.0847,3.0927,3.0963,3.0967,3.0994,3.0995,3.0997,3.1049,3.105,3.1051,3.1051,3.1117,3.1119,3.1121,3.1117,0,0,3.1127,3.1127,0,0,0,0,0,0,0,0,3.0891,3.0896,3.0957,3.0961,3.0965,3.1014,3.0991,3.1037,3.1049,3.1018,3.1051,3.1052,3.1083,3.1087,3.1098,3.112,3.1123,3.1127,3.1128,3.1129,3.1129,0,0,0,0,0,0,0,3.0887,3.0894,3.0954,3.0958,3.0963,3.0976,3.0984,3.1,3.1045,3.1021,3.1025,3.1032,3.1085,3.1096,3.11,3.1124,3.1127,3.1128,3.113,3.113,3.1149,3.1148,0,0,0,0,0,0,3.0878,3.0891,3.0952,3.0956,3.0929,3.0977,3.0986,3.0998,3.1045,3.1053,3.1031,3.1034,3.1093,3.1098,3.1103,3.1103,3.1129,3.1131,3.1132,3.1149,3.1149,3.1148,0,0,0,0,0,0,3.0876,3.0883,3.0949,3.0924,3.0934,3.0978,3.0991,3.0999,3.101,3.1053,3.1061,3.1035,3.1093,3.11,3.1114,3.1106,3.1131,3.1133,3.115,3.1149,3.1148,3.1103,0,0,0,0,0,0,3.0874,3.0882,3.0881,3.0924,3.0935,3.0959,3.099,3.0999,3.1013,3.1018,3.1058,3.1066,3.1095,3.1111,3.1116,3.1109,3.1135,3.1151,3.115,3.1149,3.1105,3.1101,3.1096,0,0,0,0,0,3.0871,3.0864,3.088,3.0888,3.0934,3.0958,3.0964,3.0998,3.1013,3.1012,3.104,3.1064,3.1106,3.1112,3.1118,3.1112,3.1152,3.115,3.1149,3.1107,3.1101,3.1097,0,0,0,0,0,0,3.0818,3.0871,3.0889,3.0897,3.0923,3.0967,3.0967,3.0991,3.1012,3.1016,3.1056,3.1065,3.1075,3.1095,3.11,3.1112,3.1132,3.1132,3.1099,3.1094,3.1089,3.1084,3.1136,0,0,0,0,0,3.0807,3.0822,3.0868,3.087,3.0882,3.0922,3.0934,3.0958,3.0986,3.0997,3.1026,3.1053,3.1072,3.1084,3.1104,3.1109,3.1119,3.1108,3.1103,3.11,3.1099,3.1105,3.1101,3.1143,3.1143,3.1143,0,0,3.0785,3.0816,3.0823,3.086,3.0883,3.0898,3.0931,3.0945,3.0957,3.0999,3.1015,3.1037,3.1069,3.1079,3.1085,3.1096,3.109,3.1098,3.1094,3.1096,3.1103,3.1099,3.1096,3.1142,3.1142,3.1142,0,0,3.0753,3.0777,3.0783,3.0806,3.0841,3.0868,3.087,3.0911,3.0928,3.0944,3.0977,3.0992,3.1024,3.1047,3.1062,3.1042,3.1065,3.1047,3.1024,3.1029,3.1026,3.1023,3.1018,3.1015,3.1046,3.1046,3.1046,0,3.0721,3.0745,3.0783,3.0796,3.0812,3.0853,3.086,3.088,3.0919,3.093,3.0942,3.0985,3.1009,3.1026,3.1022,3.1032,3.1036,3.1042,3.1024,3.1021,3.1019,3.1014,3.1012,3.1043,3.1044,3.1044,3.1044,0,3.0705,3.0722,3.0722,3.0761,3.0778,3.0787,3.0827,3.0839,3.0862,3.0888,3.0906,3.0937,3.0965,3.0971,3.0993,3.0991,3.0998,3.1016,3.1037,3.1012,3.1009,3.1007,3.104,3.1041,3.1042,3.1042,0,0,3.064,3.0702,3.0701,3.0721,3.0763,3.0777,3.0789,3.0818,3.0829,3.0855,3.0867,3.0895,3.0913,3.0931,3.0956,3.0961,3.0945,3.0979,3.0981,3.0973,3.0948,3.0934,3.0931,3.0961,3.0961,3.0961,3.0946,0,3.0616,3.0641,3.0676,3.0689,3.0706,3.0746,3.0758,3.0785,3.0811,3.0829,3.0857,3.0876,3.0898,3.091,3.0916,3.0946,3.0941,3.0947,3.0974,3.0974,3.0965,3.0929,3.0914,3.0898,3.0944,3.0944,3.0944,0,3.059,3.0616,3.0632,3.0676,3.0684,3.0693,3.0724,3.0741,3.0774,3.0792,3.0813,3.0841,3.0857,3.0876,3.09,3.0904,3.0917,3.0933,3.0933,3.0938,3.0958,3.0933,3.0894,3.0891,3.0941,3.0942,3.0942,0,3.0543,3.0582,3.0597,3.0612,3.0663,3.0669,3.0691,3.0725,3.0741,3.0767,3.0779,3.0806,3.0821,3.0843,3.0878,3.0888,3.0899,3.092,3.0915,3.0914,3.0915,3.0915,3.0878,3.0922,3.0922,3.0922,3.0922,0,3.0513,3.0521,3.0577,3.0586,3.0597,3.0638,3.0648,3.0673,3.0704,3.0719,3.0755,3.0768,3.0814,3.0833,3.0861,3.0878,3.0884,3.09,3.0907,3.0897,3.0895,3.0906,3.0909,3.0922,3.0922,3.0922,3.0922,0,3.0462,3.05,3.0519,3.0567,3.0579,3.0585,3.0627,3.0638,3.0666,3.0685,3.0692,3.0736,3.0761,3.0799,3.0834,3.0853,3.0865,3.0877,3.0854,3.0859,3.0852,3.0853,3.0822,3.0821,3.0864,3.0864,3.0863,0,3.044,3.0448,3.0498,3.0511,3.0532,3.0552,3.057,3.0611,3.0627,3.0667,3.0673,3.0701,3.0726,3.0764,3.0799,3.0827,3.0841,3.0828,3.0845,3.0835,3.0842,3.0842,3.0844,3.0824,3.0823,3.0823,3.0822,0,3.0399,3.0418,3.0441,3.0472,3.0492,3.0518,3.0545,3.0554,3.0602,3.0618,3.0645,3.0664,3.0702,3.073,3.0763,3.0786,3.0812,3.0817,3.0818,3.0808,3.0795,3.0803,3.0844,3.0817,3.0818,3.0818,3.0818,3.0819,3.0363,3.0373,3.041,3.0435,3.0461,3.0487,3.05,3.0531,3.0554,3.0589,3.0612,3.0637,3.0673,3.072,3.0742,3.0763,3.0774,3.0775,3.0775,3.0775,3.0772,3.0791,3.0769,3.0769,3.077,3.077,3.077,0,3.0324,3.0351,3.0374,3.0413,3.0433,3.0458,3.049,3.0506,3.0528,3.0559,3.0583,3.0615,3.0643,3.0681,3.0712,3.0722,3.0735,3.0729,3.0729,3.0734,3.0759,3.0756,3.0718,3.0718,3.0718,3.0718,3.0718,3.0718,3.0307,3.0325,3.0349,3.0381,3.0407,3.0434,3.045,3.0475,3.05,3.0534,3.0558,3.0583,3.0618,3.0652,3.0679,3.069,3.07,3.069,3.0704,3.0727,3.0732,3.0736,3.0734,3.0692,3.0691,3.0678,3.0678,3.0678]}]]